Location: Albany
(35.0000°S, 118.0000°E)
Time: 05:55:23
(UTC-04:00)

Daily predictions for brighter satellites

Satellite Brightness Start Highest point End
(mag) Time Altitude Azimuth Time Altitude Azimuth Time Altitude Azimuth
NOSS 3-1 (A) 4.2 05:19:39 10° NNW 05:27:57 74° ENE 05:35:42 10° SE
ATLAS CENTAUR R/B 1.8 05:26:31 10° SW 05:30:32 71° WNW 05:34:51 10° NNE
Cosmos 2151 Rocket 4.1 05:26:35 10° NNE 05:30:50 42° E 05:35:10 10° SSE
Aurora 2 Rocket 4.3 05:29:23 10° NW 05:31:49 18° N 05:34:40 10° NE
CSL-04 Debris 4.2 05:26:32 10° SSE 05:32:04 76° ENE 05:37:33 10° N
Cosmos 1269 Rocket 4.0 05:27:17 10° SSW 05:32:37 68° ESE 05:37:52 10° NNE
MOS 1 Rocket 3.5 05:28:44 10° SSE 05:34:01 68° E 05:38:56 10° N
Cosmos 2227 Rocket 2.5 05:29:06 10° NNW 05:34:46 75° WSW 05:40:31 10° SSE
Cosmos 1536 Rocket 4.5 05:31:04 10° SSE 05:35:01 28° ESE 05:38:55 10° NE
CZ-4 R/B 2.0 05:34:54 10° SSE 05:38:57 40° E 05:42:54 10° NNE
CZ-2C R/B 4.1 05:35:55 10° ESE 05:38:57 15° E 05:41:59 10° NE
OAO 3 Rocket 3.4 05:34:07 10° W 05:39:05 79° N 05:43:56 10° ENE
IDEFIX/ARIANE 42P 4.3 05:39:16 10° ESE 05:41:25 12° E 05:43:34 10° ENE
Cosmos 1048 Rocket 4.0 05:37:42 10° S 05:43:01 64° ESE 05:48:11 10° NNE
Okean 1 Rocket 4.4 05:40:52 10° NE 05:44:08 20° E 05:47:26 10° SE
CSL-04 Rocket 4.2 05:39:05 10° S 05:44:41 68° WSW 05:50:10 10° NNW
GPS 2-05 Rocket1 2.8 05:42:13 10° W 05:45:43 78° S 05:48:56 11° E
SPOT 3 Rocket 3.7 05:40:52 10° SSE 05:46:00 56° ENE 05:51:03 10° N
ATLAS 3B R/B 4.1 05:42:53 10° S 05:47:37 18° SE 05:52:22 10° E
Cosmos 1242 Rocket 4.2 05:46:21 10° SE 05:48:30 15° ESE 05:50:38 10° ENE
ATLAS 2AS CENTAUR R/B 3.1 05:46:20 10° N 05:52:33 40° ENE 05:58:21 10° SE
ISS -2.1 05:51:23 10° WSW 05:54:36 46° NW 05:57:46 10° NNE
Meteor 1-28 Rocket 3.7 05:52:08 10° NE 05:55:35 36° ESE 05:59:05 10° S
Exosat Rocket 4.2 05:51:06 10° NNE 05:55:44 34° ENE 06:00:21 10° SE
DELTA 2 R/B (1) 4.2 05:52:00 10° NW 05:57:18 45° NNE 06:01:45 14° E
Cosmos 1812 4.0 05:55:43 10° SSE 05:58:47 21° ESE 06:01:49 10° NE
YAOGAN 1 2.9 05:54:50 10° SSE 05:59:05 47° E 06:03:17 10° N
BREEZE-M DEB (TANK) 2.4 05:58:22 10° WNW 06:00:29 52° SSW 06:02:56 14° SE
Cosmos 2333 Rocket 2.6 05:54:47 10° SSW 06:00:32 71° WNW 06:06:11 10° NNE
Cosmos 2123 Rocket 4.5 05:58:03 10° SSE 06:03:51 36° ESE 06:09:30 10° NE
COSMO-SKYMED 1 4.5 06:03:17 10° NNW 06:07:16 34° W 06:11:18 10° SSW
Cosmos 2297 Rocket 2.9 06:03:16 10° NW 06:08:48 56° WSW 06:14:24 10° SSE
Cosmos 1605 Rocket 4.4 06:05:14 10° NNE 06:11:11 43° E 06:17:14 10° SSE
Cosmos 1300 Rocket 3.8 06:08:16 10° NNE 06:12:30 47° E 06:16:48 10° SSE
Helios 1B rocket 3.8 06:09:11 10° N 06:13:07 42° W 06:17:07 10° SSW
Meteor 1-20 Rocket 4.2 06:08:10 10° N 06:13:44 60° E 06:19:15 10° SSE
Cosmos 1821 Rocket 4.0 06:08:30 10° N 06:14:50 81° E 06:21:11 10° S
Okean 1 4.0 06:11:47 10° SSE 06:15:30 32° E 06:19:09 10° NE
Meteor 1-18 Rocket 4.3 06:13:36 10° S 06:19:36 73° E 06:25:32 10° NNE
PAYLOAD A 4.0 06:18:25 10° SSE 06:23:35 67° ENE 06:28:52 10° N
MINOTAUR R/B 4.4 06:22:36 10° SSW 06:25:44 84° ESE 06:28:50 10° NNE
COSMOS 2455 3.5 06:20:55 10° S 06:26:18 32° SE 06:28:55 23° E
SAR-Lupe-1 4.0 06:24:01 18° SSE 06:26:36 61° E 06:30:09 10° N
SAR-Lupe-4 3.4 06:26:22 14° SSE 06:29:24 77° ENE 06:32:59 10° N
AQUARIUS 4.1 06:26:14 10° SSE 06:30:50 90° W 06:35:21 10° NNW
Cosmos 2227 4.3 06:27:07 10° N 06:32:44 57° ENE 06:36:39 20° SE
Cosmos 1184 Rocket 3.6 06:30:21 10° NNW 06:33:39 54° W 06:37:01 10° S
Meteor 1-11 Rocket 4.1 06:31:03 10° NNE 06:36:39 45° E 06:40:44 18° SSE
Cosmos 158 Rocket 3.9 06:32:42 10° SSW 06:37:39 82° WNW 06:42:32 10° NNE
Cosmos 2251 Rocket 3.4 06:32:21 10° SSW 06:37:40 80° ESE 06:42:56 10° NNE
Cosmos 2237 Rocket 4.0 06:36:04 10° SW 06:41:07 34° WNW 06:46:07 10° NNW
SL-19 R/B 4.2 06:38:11 10° SSE 06:43:47 70° ENE 06:49:27 10° N
Aureole 2 Rocket 4.5 06:41:06 10° S 06:43:06 23° SSE 06:43:06 23° SSE
Cosmos 1934 Rocket 4.3 06:39:43 10° NNW 06:45:46 67° W 06:51:52 10° S
Okean 1-7 Rocket 3.5 06:41:52 10° S 06:46:29 76° E 06:50:59 10° N
Cosmos 921 Rocket 3.2 06:42:55 10° NNW 06:47:15 72° WSW 06:50:27 19° S
Cosmos 2061 Rocket 4.5 06:50:16 10° NNE 06:55:40 38° E 06:55:40 38° E
ASTRO E2 4.5 06:54:05 10° NNW 06:56:56 21° NNE 06:56:56 21° NNE
SMAP 4.2 06:56:07 10° S 07:00:35 43° WSW 07:05:00 10° NW
Meteor 1-13 Rocket 4.2 07:00:01 10° S 07:06:03 80° E 07:12:02 10° N
SL-16 R/B 3.1 07:01:27 10° SSW 07:06:58 49° WNW 07:12:24 10° N
Cosmos 2173 Rocket 4.3 07:05:57 10° NNE 07:10:50 46° ENE 07:10:50 46° ENE
CZ-4 R/B 4.4 07:11:11 10° SSW 07:13:36 15° WSW 07:16:00 10° WNW
Spot 1 4.4 07:14:53 75° SE 07:15:19 83° ENE 07:20:31 10° NNW
CZ-2C R/B 3.2 07:12:42 12° S 07:17:26 54° WSW 07:22:30 10° NNW
IDEFIX/ARIANE 42P 2.9 07:18:37 27° S 07:21:25 64° WSW 07:26:33 10° NNW
OAO 3 Rocket 4.4 07:17:57 10° W 07:22:22 35° NNW 07:22:56 33° N
Meteor 1-19 Rocket 4.3 07:25:26 10° S 07:37:01 11° N 07:37:09 10° N
Cosmos 1603 3.8 07:29:48 10° SSW 07:35:15 74° WSW 07:35:15 74° WSW
ATLAS 3B R/B 2.7 07:32:05 10° SSW 07:39:15 85° ESE 07:39:44 79° ENE
ATLAS 2AS CENTAUR R/B 3.9 07:37:32 10° WNW 07:43:23 33° SW 07:45:50 25° SSW
DELTA 2 R/B (1) 4.1 07:38:05 10° W 07:42:32 54° WSW 07:42:32 54° WSW
MSX 4.1 07:43:47 65° WSW 07:43:57 66° WSW 07:49:39 10° NNW
ATLAS 2A CENTAUR R/B 4.1 07:49:40 10° W 08:08:51 34° NW 08:10:34 31° NNW
COSMOS 2455 4.1 08:06:44 10° SW 08:12:11 36° WNW 08:12:12 36° WNW
